Regional Weather Roundup
Issued by NWS

Home | Current Version | Previous Version | Text Only | Print | Product List | Glossary Off
Versions: 1 2 3 4 5 6 7 8 9 10 11 12 13 14 15 16 17 18 19 20 21 22 23 24 25 26 27 28 29 30 31 32 33 34 35 36 37 38 39 40 41 42 43 44 45 46 47 48 49 50

000
ASUS43 KFSD 231810
RWRSD

WEATHER ROUNDUP FOR SOUTH DAKOTA
NATIONAL WEATHER SERVICE SIOUX FALLS SD
1200 PM CST THU NOV 23 2017

NOTE: "FAIR" INDICATES FEW OR NO CLOUDS BELOW 12,000 FEET WITH NO
SIGNIFICANT WEATHER AND/OR OBSTRUCTIONS TO VISIBILITY.


SDZ001>005-009-010-012>017-231900-
NORTHWEST AND NORTH CENTRAL SOUTH DAKOTA

CITY           SKY/WX    TMP DP  RH WIND       PRES   REMARKS
FAITH            N/A     68  40  35 SW10      29.80F
MOBRIDGE       MOSUNNY   53  40  61 S12       29.74F
$$

SDZ012>016-024>037-041>051-057-063-072>074-231900-
SOUTHWEST AND SOUTH CENTRAL SOUTH DAKOTA

CITY           SKY/WX    TMP DP  RH WIND       PRES   REMARKS
RAPID CTY ARPT SUNNY     69  39  33 SE7       29.88F
PIERRE         MOSUNNY   59  41  51 SW13      29.80F
CUSTER         SUNNY     59  34  39 SW9       30.00F
ELLSWORTH AFB  SUNNY     71  37  29 S8        29.87F
PHILIP         CLOUDY    67  42  40 W15       29.84F
PINE RIDGE     SUNNY     63  40  42 W14G21    29.95F
SPEARFISH      FAIR      70  34  26 SW17G23   29.89F
WINNER         FAIR      72  43  35 SW10      29.86F
$$

SDZ004>011-016>023-039-040-231900-
NORTHEAST SOUTH DAKOTA

CITY           SKY/WX    TMP DP  RH WIND       PRES   REMARKS
ABERDEEN       CLOUDY    47  34  60 S15       29.79F
WATERTOWN      CLOUDY    45  32  60 S10       29.83F
BROOKINGS      CLOUDY    48  31  51 S12       29.87F
SISSETON         N/A     45  31  58 S8        29.77F
$$

SDZ017-020-022-023-036>040-048>070-231900-
SOUTHEAST SOUTH DAKOTA

CITY           SKY/WX    TMP DP  RH WIND       PRES   REMARKS
SIOUX FALLS    PTSUNNY   48  32  53 SW7       29.92F
HURON          SUNNY     49  33  54 S14       29.84F
CHAMBERLAIN    CLOUDY    61  44  53 SW8       29.86F
MITCHELL       CLOUDY    50  34  54 S12       29.88F
YANKTON        CLOUDY    51  36  56 SE5       29.92F
$$

ABBREVIATIONS USED IN REMARKS
   TC - TEMPERATURE IN CELSIUS
  WCI - WIND CHILL INDEX
   HX - HEAT INDEX
  VSB - VISIBILITY





USA.gov is the U.S. government's official web portal to all federal, state and local government web resources and services.